Time,TemperatureF,DewpointF,PressureIn,WindDirection,WindDirectionDegrees,WindSpeedMPH,WindSpeedGustMPH,Humidity,HourlyPrecipIn,Conditions,Clouds,dailyrainin,SoftwareType,DateUTC
2013-04-23 00:01:00,57.4,43.7,18.79,SSW,211,8.3,8.3,60,0.00,,OVC,0.00,VWS V13.01,2013-04-23 05:01:00,
2013-04-23 00:06:00,57.0,43.3,18.79,SW,227,3.1,11.0,60,0.00,,OVC,0.00,VWS V13.01,2013-04-23 05:06:00,
2013-04-23 00:11:00,56.7,43.0,18.79,SSW,197,2.2,4.9,60,0.00,,OVC,0.00,VWS V13.01,2013-04-23 05:11:00,
2013-04-23 00:16:00,56.5,42.8,18.79,South,176,2.7,3.1,60,0.00,,OVC,0.00,VWS V13.01,2013-04-23 05:16:00,
2013-04-23 00:21:00,56.3,42.6,18.79,SW,225,3.6,8.1,60,0.00,,OVC,0.00,VWS V13.01,2013-04-23 05:21:00,
2013-04-23 00:26:00,56.1,42.5,18.79,SSW,194,2.2,4.0,60,0.00,,OVC,0.00,VWS V13.01,2013-04-23 05:26:00,
2013-04-23 02:33:00,51.4,40.4,18.79,SSE,165,0.0,0.0,66,0.00,,OVC,0.00,VWS V13.01,2013-04-23 07:33:00,
2013-04-23 02:44:00,51.1,40.0,18.79,SSW,212,0.0,3.1,66,0.00,,OVC,0.00,VWS V13.01,2013-04-23 07:44:00,
2013-04-23 02:49:00,51.1,40.0,18.79,WSW,246,4.9,4.9,66,0.00,,OVC,0.00,VWS V13.01,2013-04-23 07:49:00,
2013-04-23 02:54:00,51.3,40.8,18.79,SW,233,3.1,4.9,67,0.00,,OVC,0.00,VWS V13.01,2013-04-23 07:54:00,
2013-04-23 02:59:00,51.4,40.9,18.79,WSW,240,2.2,2.2,67,0.00,,OVC,0.00,VWS V13.01,2013-04-23 07:59:00,
2013-04-23 03:04:00,51.4,40.9,18.79,SSW,203,0.0,0.0,67,0.00,,OVC,0.00,VWS V13.01,2013-04-23 08:04:00,
2013-04-23 03:09:00,51.4,40.9,18.79,SSW,195,0.0,0.0,67,0.00,,OVC,0.00,VWS V13.01,2013-04-23 08:09:00,
2013-04-23 03:14:00,51.3,40.8,18.79,SSE,165,2.7,3.1,67,0.00,,OVC,0.00,VWS V13.01,2013-04-23 08:14:00,
2013-04-23 03:19:00,51.3,40.8,18.79,SW,219,2.7,2.7,67,0.00,,OVC,0.00,VWS V13.01,2013-04-23 08:19:00,
2013-04-23 03:24:00,51.3,40.8,18.79,SW,226,4.0,4.0,67,0.00,,OVC,0.00,VWS V13.01,2013-04-23 08:24:00,
2013-04-23 03:29:00,51.1,40.6,18.79,South,169,0.0,0.0,67,0.00,,OVC,0.00,VWS V13.01,2013-04-23 08:29:00,
2013-04-23 03:34:00,51.1,40.6,18.79,SE,138,0.0,0.0,67,0.00,,OVC,0.00,VWS V13.01,2013-04-23 08:34:00,
2013-04-23 03:39:00,50.9,40.4,18.79,SSW,208,2.7,3.6,67,0.00,,OVC,0.00,VWS V13.01,2013-04-23 08:39:00,
2013-04-23 03:44:00,50.9,40.4,18.79,SSW,208,0.0,0.0,67,0.00,,OVC,0.00,VWS V13.01,2013-04-23 08:44:00,
2013-04-23 03:49:00,50.9,41.0,18.79,SSW,196,3.6,3.6,69,0.00,,OVC,0.00,VWS V13.01,2013-04-23 08:49:00,
2013-04-23 03:54:00,50.9,41.0,18.79,SSW,211,0.0,0.0,69,0.00,,OVC,0.00,VWS V13.01,2013-04-23 08:54:00,
2013-04-23 03:58:00,50.9,41.0,18.79,SSW,204,0.0,0.0,69,0.00,,OVC,0.00,VWS V13.01,2013-04-23 08:58:00,
2013-04-23 04:03:00,50.7,40.8,18.79,SSW,204,0.0,0.0,69,0.00,,OVC,0.00,VWS V13.01,2013-04-23 09:03:00,
2013-04-23 04:08:00,50.5,40.6,18.79,SSW,195,0.0,3.1,69,0.00,,OVC,0.00,VWS V13.01,2013-04-23 09:08:00,
2013-04-23 04:13:00,50.5,40.6,18.79,SSE,165,0.0,0.0,69,0.00,,OVC,0.00,VWS V13.01,2013-04-23 09:13:00,
2013-04-23 04:18:00,50.5,40.6,18.79,South,179,0.0,0.0,69,0.00,,OVC,0.00,VWS V13.01,2013-04-23 09:18:00,
2013-04-23 04:23:00,50.4,40.5,18.79,SSW,212,3.1,3.1,69,0.00,,OVC,0.00,VWS V13.01,2013-04-23 09:23:00,
2013-04-23 04:28:00,50.4,41.0,18.79,South,191,0.0,0.0,70,0.00,,OVC,0.00,VWS V13.01,2013-04-23 09:28:00,
2013-04-23 04:33:00,50.4,41.0,18.79,SSW,200,0.0,0.0,70,0.00,,OVC,0.00,VWS V13.01,2013-04-23 09:33:00,
2013-04-23 04:38:00,50.4,41.0,18.79,SSW,210,0.0,2.7,70,0.00,,OVC,0.00,VWS V13.01,2013-04-23 09:38:00,
2013-04-23 04:43:00,50.4,41.5,18.79,SW,222,0.0,4.9,71,0.00,,OVC,0.00,VWS V13.01,2013-04-23 09:43:00,
2013-04-23 04:48:00,50.4,41.5,18.79,SSW,204,0.0,0.0,71,0.00,,OVC,0.00,VWS V13.01,2013-04-23 09:48:00,
2013-04-23 04:53:00,50.4,41.5,18.79,SSW,210,0.0,0.0,71,0.00,,OVC,0.00,VWS V13.01,2013-04-23 09:53:00,
2013-04-23 04:58:00,50.2,41.3,18.79,SW,215,0.0,0.0,71,0.00,,OVC,0.00,VWS V13.01,2013-04-23 09:58:00,
2013-04-23 05:03:00,50.2,41.3,18.79,SW,214,0.0,0.0,71,0.00,,OVC,0.00,VWS V13.01,2013-04-23 10:03:00,
2013-04-23 05:08:00,50.0,41.2,18.79,SSW,203,0.0,0.0,71,0.00,,OVC,0.00,VWS V13.01,2013-04-23 10:08:00,
2013-04-23 05:13:00,49.6,41.3,18.79,SSW,198,0.0,0.0,73,0.00,,OVC,0.00,VWS V13.01,2013-04-23 10:13:00,
2013-04-23 05:18:00,49.5,41.2,18.79,SW,215,0.0,0.0,73,0.00,,OVC,0.00,VWS V13.01,2013-04-23 10:18:00,
2013-04-23 05:23:00,49.5,41.2,18.79,South,179,0.0,0.0,73,0.00,,OVC,0.00,VWS V13.01,2013-04-23 10:23:00,
2013-04-23 05:28:00,49.5,42.2,18.79,SW,229,5.4,5.4,76,0.00,,OVC,0.00,VWS V13.01,2013-04-23 10:28:00,
2013-04-23 05:33:00,50.0,43.2,18.79,SSW,203,4.0,4.9,77,0.00,,OVC,0.00,VWS V13.01,2013-04-23 10:33:00,
2013-04-23 05:38:00,50.2,42.8,18.79,South,181,4.9,4.9,76,0.00,,OVC,0.00,VWS V13.01,2013-04-23 10:38:00,
2013-04-23 05:43:00,50.2,42.8,18.79,South,184,2.2,4.0,76,0.00,,OVC,0.00,VWS V13.01,2013-04-23 10:43:00,
2013-04-23 05:48:00,50.2,43.3,18.79,SSW,203,0.0,3.1,77,0.00,,OVC,0.00,VWS V13.01,2013-04-23 10:48:00,
2013-04-23 05:53:00,50.2,43.3,18.79,SW,227,2.7,3.1,77,0.00,,OVC,0.00,VWS V13.01,2013-04-23 10:53:00,
2013-04-23 05:58:00,50.4,43.5,18.79,SSW,212,0.0,0.0,77,0.00,,OVC,0.00,VWS V13.01,2013-04-23 10:58:00,
2013-04-23 06:03:00,50.4,43.5,18.79,South,187,5.4,5.4,77,0.00,,OVC,0.00,VWS V13.01,2013-04-23 11:03:00,
2013-04-23 06:08:00,50.4,43.5,18.79,SSW,202,4.0,5.8,77,0.00,,OVC,0.00,VWS V13.01,2013-04-23 11:08:00,
2013-04-23 06:13:00,50.4,43.5,18.79,South,179,3.6,3.6,77,0.00,,OVC,0.00,VWS V13.01,2013-04-23 11:13:00,
2013-04-23 06:18:00,50.5,43.7,18.79,South,182,3.6,7.2,77,0.00,,OVC,0.00,VWS V13.01,2013-04-23 11:18:00,
2013-04-23 06:23:00,50.5,43.7,18.79,SW,225,5.8,5.8,77,0.00,,OVC,0.00,VWS V13.01,2013-04-23 11:23:00,
2013-04-23 06:28:00,50.5,43.7,18.79,WSW,244,3.1,8.1,77,0.00,,OVC,0.00,VWS V13.01,2013-04-23 11:28:00,
2013-04-23 06:33:00,50.5,43.7,18.79,SW,236,3.6,3.6,77,0.00,,OVC,0.00,VWS V13.01,2013-04-23 11:33:00,
2013-04-23 06:38:00,50.4,43.5,18.79,SSW,207,6.3,10.1,77,0.00,,OVC,0.00,VWS V13.01,2013-04-23 11:38:00,
2013-04-23 06:43:00,50.5,44.2,18.79,SSE,167,5.8,5.8,79,0.00,,OVC,0.00,VWS V13.01,2013-04-23 11:43:00,
2013-04-23 06:48:00,50.5,44.2,18.79,WSW,241,8.7,8.7,79,0.00,,OVC,0.00,VWS V13.01,2013-04-23 11:48:00,
2013-04-23 06:53:00,48.9,40.1,18.79,West,262,10.1,10.1,71,0.00,,OVC,0.00,VWS V13.01,2013-04-23 11:53:00,
2013-04-23 06:58:00,47.8,39.1,18.79,WSW,257,3.1,4.9,71,0.00,,OVC,0.00,VWS V13.01,2013-04-23 11:58:00,
2013-04-23 07:03:00,47.3,39.1,18.79,West,274,4.9,7.6,73,0.00,,OVC,0.00,VWS V13.01,2013-04-23 12:03:00,
2013-04-23 07:08:00,46.9,39.2,18.79,WSW,242,6.3,7.6,74,0.00,,OVC,0.00,VWS V13.01,2013-04-23 12:08:00,
2013-04-23 07:13:00,46.6,38.9,18.79,West,266,5.8,5.8,74,0.00,,OVC,0.00,VWS V13.01,2013-04-23 12:13:00,
2013-04-23 07:18:00,46.2,39.0,18.79,West,262,7.2,8.1,76,0.00,,OVC,0.00,VWS V13.01,2013-04-23 12:18:00,
2013-04-23 07:23:00,45.7,38.5,18.79,WSW,250,5.8,10.5,76,0.00,,OVC,0.00,VWS V13.01,2013-04-23 12:23:00,
2013-04-23 07:28:00,45.1,38.4,18.79,WNW,282,8.1,10.1,77,0.00,,OVC,0.00,VWS V13.01,2013-04-23 12:28:00,
2013-04-23 07:33:00,44.4,37.7,18.79,NNW,345,8.7,8.7,77,0.00,,OVC,0.00,VWS V13.01,2013-04-23 12:33:00,
2013-04-23 07:38:00,44.1,37.9,18.79,WSW,237,2.2,6.3,79,0.00,,OVC,0.00,VWS V13.01,2013-04-23 12:38:00,
2013-04-23 07:43:00,43.7,37.5,18.79,NW,310,2.7,6.3,79,0.00,,OVC,0.00,VWS V13.01,2013-04-23 12:43:00,
2013-04-23 07:48:00,43.5,37.3,18.79,WSW,245,7.2,7.2,79,0.00,,OVC,0.00,VWS V13.01,2013-04-23 12:48:00,
2013-04-23 07:53:00,43.2,36.5,18.79,West,280,10.1,10.1,77,0.00,,OVC,0.00,VWS V13.01,2013-04-23 12:53:00,
2013-04-23 07:58:00,42.8,35.7,18.79,West,264,8.1,8.3,76,0.00,,OVC,0.00,VWS V13.01,2013-04-23 12:58:00,
2013-04-23 08:03:00,42.3,34.2,18.79,SSW,204,5.4,7.6,73,0.00,,OVC,0.00,VWS V13.01,2013-04-23 13:03:00,
2013-04-23 08:08:00,41.7,33.7,18.79,NNW,332,6.7,7.2,73,0.00,,OVC,0.00,VWS V13.01,2013-04-23 13:08:00,
2013-04-23 08:13:00,41.2,32.7,18.79,WSW,237,5.4,8.1,71,0.00,,OVC,0.00,VWS V13.01,2013-04-23 13:13:00,
2013-04-23 08:18:00,40.6,32.2,18.79,East,82,5.4,5.4,71,0.00,,OVC,0.00,VWS V13.01,2013-04-23 13:18:00,
2013-04-23 08:23:00,40.3,31.8,18.79,North,10,0.0,4.0,71,0.00,,OVC,0.00,VWS V13.01,2013-04-23 13:23:00,
2013-04-23 08:28:00,39.9,31.5,18.79,NW,304,3.6,8.1,71,0.00,,OVC,0.00,VWS V13.01,2013-04-23 13:28:00,
2013-04-23 08:33:00,39.7,31.3,18.79,WSW,248,2.2,2.7,71,0.00,,OVC,0.00,VWS V13.01,2013-04-23 13:33:00,
2013-04-23 08:38:00,39.6,31.1,18.79,SW,234,5.4,5.4,71,0.00,,OVC,0.00,VWS V13.01,2013-04-23 13:38:00,
2013-04-23 08:43:00,39.2,30.8,18.79,NNE,30,2.7,2.7,71,0.00,,OVC,0.00,VWS V13.01,2013-04-23 13:43:00,
2013-04-23 08:48:00,39.0,30.6,18.79,NNW,335,8.3,8.3,71,0.00,,OVC,0.00,VWS V13.01,2013-04-23 13:48:00,
2013-04-23 08:53:00,39.0,31.1,18.79,NNE,12,2.2,2.7,73,0.00,,OVC,0.00,VWS V13.01,2013-04-23 13:53:00,
2013-04-23 08:58:00,39.0,30.6,18.79,NW,308,5.8,10.1,71,0.00,,OVC,0.00,VWS V13.01,2013-04-23 13:58:00,
2013-04-23 09:03:00,39.0,30.6,18.79,West,266,8.1,8.1,71,0.00,,OVC,0.00,VWS V13.01,2013-04-23 14:03:00,
2013-04-23 09:08:00,39.2,30.8,18.79,West,262,6.3,6.3,71,0.00,,OVC,0.00,VWS V13.01,2013-04-23 14:08:00,
2013-04-23 09:13:00,39.2,30.3,18.79,North,0,5.8,5.8,70,0.00,,OVC,0.00,VWS V13.01,2013-04-23 14:13:00,
2013-04-23 09:18:00,39.0,30.1,18.79,NW,316,3.1,3.6,70,0.00,,OVC,0.00,VWS V13.01,2013-04-23 14:18:00,
2013-04-23 09:23:00,39.0,30.1,18.79,WNW,293,4.0,5.4,70,0.00,,OVC,0.00,VWS V13.01,2013-04-23 14:23:00,
2013-04-23 09:28:00,39.0,30.1,18.79,West,280,10.5,10.5,70,0.00,,OVC,0.00,VWS V13.01,2013-04-23 14:28:00,
2013-04-23 09:33:00,39.2,30.3,18.79,North,353,4.0,10.1,70,0.00,,OVC,0.00,VWS V13.01,2013-04-23 14:33:00,
2013-04-23 09:38:00,39.4,29.9,18.79,WSW,251,4.0,7.6,69,0.00,,OVC,0.00,VWS V13.01,2013-04-23 14:38:00,
2013-04-23 09:43:00,39.4,29.9,18.79,North,353,2.7,2.7,69,0.00,,OVC,0.00,VWS V13.01,2013-04-23 14:43:00,
2013-04-23 09:47:00,39.4,29.9,18.79,WNW,285,4.0,8.3,69,0.00,,OVC,0.00,VWS V13.01,2013-04-23 14:47:00,
2013-04-23 09:53:00,39.4,29.9,18.79,NNW,346,2.7,5.8,69,0.00,,OVC,0.00,VWS V13.01,2013-04-23 14:53:00,
2013-04-23 09:57:00,39.4,29.9,18.79,WNW,302,5.4,5.4,69,0.00,,OVC,0.00,VWS V13.01,2013-04-23 14:57:00,
2013-04-23 10:02:00,39.4,29.9,18.79,WNW,302,8.3,8.3,69,0.00,,OVC,0.00,VWS V13.01,2013-04-23 15:02:00,
2013-04-23 10:07:00,39.4,29.9,18.79,North,353,5.4,7.6,69,0.00,,OVC,0.00,VWS V13.01,2013-04-23 15:07:00,
2013-04-23 10:12:00,39.2,29.2,18.79,WNW,300,4.0,5.8,67,0.00,,OVC,0.00,VWS V13.01,2013-04-23 15:12:00,
2013-04-23 10:17:00,39.2,29.2,18.79,SW,230,3.1,4.0,67,0.00,,OVC,0.00,VWS V13.01,2013-04-23 15:17:00,
2013-04-23 10:22:00,39.2,29.2,18.79,WSW,258,5.4,5.8,67,0.00,,OVC,0.00,VWS V13.01,2013-04-23 15:22:00,
2013-04-23 10:27:00,39.2,29.2,18.79,NNW,331,6.3,6.3,67,0.00,,OVC,0.00,VWS V13.01,2013-04-23 15:27:00,
2013-04-23 10:32:00,39.4,29.4,18.79,West,277,3.6,7.6,67,0.00,,OVC,0.00,VWS V13.01,2013-04-23 15:32:00,
2013-04-23 10:37:00,39.4,29.4,18.79,WSW,241,5.4,5.4,67,0.00,,OVC,0.00,VWS V13.01,2013-04-23 15:37:00,
2013-04-23 10:42:00,39.6,29.6,18.79,West,264,7.6,7.6,67,0.00,,OVC,0.00,VWS V13.01,2013-04-23 15:42:00,
2013-04-23 10:47:00,39.4,29.4,18.79,North,0,5.4,5.4,67,0.00,,OVC,0.00,VWS V13.01,2013-04-23 15:47:00,
2013-04-23 10:52:00,39.4,29.4,18.79,NNW,344,2.2,4.0,67,0.00,,OVC,0.00,VWS V13.01,2013-04-23 15:52:00,
2013-04-23 10:57:00,39.4,29.4,18.79,North,357,2.7,5.8,67,0.00,,OVC,0.00,VWS V13.01,2013-04-23 15:57:00,
2013-04-23 11:02:00,39.6,29.6,18.79,North,350,5.8,5.8,67,0.00,,OVC,0.00,VWS V13.01,2013-04-23 16:02:00,
2013-04-23 11:07:00,39.6,29.6,18.79,North,4,3.6,8.3,67,0.00,,OVC,0.00,VWS V13.01,2013-04-23 16:07:00,
2013-04-23 11:12:00,39.7,29.8,18.79,NNW,345,4.9,4.9,67,0.00,,OVC,0.00,VWS V13.01,2013-04-23 16:12:00,
2013-04-23 11:17:00,39.9,29.9,18.79,WNW,284,0.0,3.6,67,0.00,,OVC,0.00,VWS V13.01,2013-04-23 16:17:00,
2013-04-23 11:22:00,39.9,29.9,18.79,NNE,23,4.0,8.7,67,0.00,,OVC,0.00,VWS V13.01,2013-04-23 16:22:00,
2013-04-23 11:27:00,39.9,29.9,18.79,SW,233,4.0,4.9,67,0.00,,OVC,0.00,VWS V13.01,2013-04-23 16:27:00,
2013-04-23 11:32:00,39.7,29.8,18.79,NW,313,8.7,8.7,67,0.00,,OVC,0.00,VWS V13.01,2013-04-23 16:32:00,
2013-04-23 11:37:00,39.7,29.8,18.79,West,275,3.6,5.8,67,0.00,,OVC,0.00,VWS V13.01,2013-04-23 16:37:00,
2013-04-23 11:42:00,39.6,29.6,18.79,WNW,298,2.7,5.8,67,0.00,,OVC,0.00,VWS V13.01,2013-04-23 16:42:00,
2013-04-23 11:47:00,39.4,29.4,18.79,NW,326,5.8,5.8,67,0.00,,OVC,0.00,VWS V13.01,2013-04-23 16:47:00,
2013-04-23 11:52:00,39.2,29.2,18.79,North,353,7.2,7.2,67,0.00,,OVC,0.00,VWS V13.01,2013-04-23 16:52:00,
2013-04-23 11:57:00,39.2,29.2,18.79,NW,309,3.1,3.1,67,0.00,,OVC,0.00,VWS V13.01,2013-04-23 16:57:00,
2013-04-23 12:02:00,39.2,29.2,18.79,NNE,13,10.5,10.5,67,0.00,,OVC,0.00,VWS V13.01,2013-04-23 17:02:00,
2013-04-23 12:07:00,39.2,29.2,18.79,WNW,298,3.1,5.4,67,0.00,,OVC,0.00,VWS V13.01,2013-04-23 17:07:00,
2013-04-23 12:12:00,39.4,29.4,18.79,SW,229,3.6,6.3,67,0.00,,OVC,0.00,VWS V13.01,2013-04-23 17:12:00,
2013-04-23 12:17:00,39.6,29.6,18.79,North,6,7.6,7.6,67,0.00,,OVC,0.00,VWS V13.01,2013-04-23 17:17:00,
2013-04-23 12:22:00,39.6,29.6,18.79,North,353,4.0,4.0,67,0.00,,OVC,0.00,VWS V13.01,2013-04-23 17:22:00,
2013-04-23 12:27:00,39.9,29.9,18.79,WNW,290,2.7,3.1,67,0.00,,OVC,0.00,VWS V13.01,2013-04-23 17:27:00,
2013-04-23 12:32:00,40.1,30.1,18.79,NW,323,5.4,7.6,67,0.00,,OVC,0.00,VWS V13.01,2013-04-23 17:32:00,
2013-04-23 12:37:00,39.9,29.9,18.79,NW,315,2.7,3.6,67,0.00,,OVC,0.00,VWS V13.01,2013-04-23 17:37:00,
2013-04-23 12:42:00,39.9,29.9,18.79,North,7,3.1,4.9,67,0.00,,OVC,0.00,VWS V13.01,2013-04-23 17:42:00,
2013-04-23 12:47:00,39.9,29.9,18.79,North,3,7.2,8.1,67,0.00,,OVC,0.00,VWS V13.01,2013-04-23 17:47:00,
2013-04-23 12:52:00,39.7,29.8,18.79,NNE,26,5.4,5.4,67,0.00,,OVC,0.00,VWS V13.01,2013-04-23 17:52:00,
2013-04-23 12:57:00,39.7,29.8,18.79,NNW,330,0.0,5.4,67,0.00,,OVC,0.00,VWS V13.01,2013-04-23 17:57:00,
2013-04-23 13:02:00,39.7,29.8,18.79,NNW,339,4.9,5.4,67,0.00,,OVC,0.00,VWS V13.01,2013-04-23 18:02:00,
2013-04-23 13:07:00,39.7,29.8,18.79,North,0,2.7,3.6,67,0.00,,OVC,0.00,VWS V13.01,2013-04-23 18:07:00,
2013-04-23 13:12:00,39.6,29.6,18.79,NW,317,0.0,4.0,67,0.00,,OVC,0.00,VWS V13.01,2013-04-23 18:12:00,
2013-04-23 13:17:00,39.6,29.6,18.79,NNW,342,3.1,7.6,67,0.00,,OVC,0.00,VWS V13.01,2013-04-23 18:17:00,
2013-04-23 13:22:00,39.6,29.6,18.79,NNW,345,6.3,6.3,67,0.00,,OVC,0.00,VWS V13.01,2013-04-23 18:22:00,
2013-04-23 13:27:00,39.4,29.4,18.79,North,2,3.6,5.8,67,0.00,,OVC,0.00,VWS V13.01,2013-04-23 18:27:00,
2013-04-23 13:32:00,39.4,29.4,18.79,West,274,3.1,4.9,67,0.00,,OVC,0.00,VWS V13.01,2013-04-23 18:32:00,
2013-04-23 13:37:00,39.4,29.4,18.79,NW,317,3.1,6.3,67,0.00,,OVC,0.00,VWS V13.01,2013-04-23 18:37:00,
2013-04-23 13:42:00,39.6,29.6,18.79,NW,313,5.8,5.8,67,0.00,,OVC,0.00,VWS V13.01,2013-04-23 18:42:00,
2013-04-23 13:47:00,39.6,29.6,18.79,NW,322,6.7,6.7,67,0.00,,OVC,0.00,VWS V13.01,2013-04-23 18:47:00,
2013-04-23 13:52:00,39.7,29.8,18.79,West,263,3.1,8.3,67,0.00,,OVC,0.00,VWS V13.01,2013-04-23 18:52:00,
2013-04-23 13:57:00,39.7,29.8,18.79,NNW,346,4.9,5.8,67,0.00,,OVC,0.00,VWS V13.01,2013-04-23 18:57:00,
2013-04-23 14:02:00,39.9,29.9,18.79,WNW,287,4.0,7.6,67,0.00,,OVC,0.00,VWS V13.01,2013-04-23 19:02:00,
2013-04-23 14:07:00,40.1,30.1,18.79,WNW,288,5.4,8.1,67,0.00,,OVC,0.00,VWS V13.01,2013-04-23 19:07:00,
2013-04-23 14:12:00,40.3,30.3,18.79,NNW,332,7.6,7.6,67,0.00,,OVC,0.00,VWS V13.01,2013-04-23 19:12:00,
2013-04-23 14:17:00,40.3,30.3,18.79,NNE,31,5.8,7.6,67,0.00,,OVC,0.00,VWS V13.01,2013-04-23 19:17:00,
2013-04-23 14:22:00,40.3,30.3,18.79,NW,316,3.1,3.1,67,0.00,,OVC,0.00,VWS V13.01,2013-04-23 19:22:00,
2013-04-23 14:27:00,40.5,30.5,18.79,NW,326,2.2,3.1,67,0.00,,OVC,0.00,VWS V13.01,2013-04-23 19:27:00,
2013-04-23 14:32:00,40.6,30.6,18.79,WNW,287,5.4,5.4,67,0.00,,OVC,0.00,VWS V13.01,2013-04-23 19:32:00,
2013-04-23 14:37:00,40.3,30.3,18.79,NNW,327,8.7,8.7,67,0.00,,OVC,0.00,VWS V13.01,2013-04-23 19:37:00,
2013-04-23 14:42:00,40.3,30.3,18.79,NNW,327,3.6,7.6,67,0.00,,OVC,0.00,VWS V13.01,2013-04-23 19:42:00,
2013-04-23 14:47:00,40.3,30.3,18.79,North,357,4.0,5.4,67,0.00,,OVC,0.00,VWS V13.01,2013-04-23 19:47:00,
2013-04-23 14:52:00,40.3,30.3,18.79,NNW,329,6.3,6.3,67,0.00,,OVC,0.00,VWS V13.01,2013-04-23 19:52:00,
2013-04-23 14:57:00,40.3,30.3,18.79,North,353,8.3,8.3,67,0.00,,OVC,0.00,VWS V13.01,2013-04-23 19:57:00,
2013-04-23 15:02:00,40.5,30.5,18.79,North,0,3.6,4.9,67,0.00,,OVC,0.00,VWS V13.01,2013-04-23 20:02:00,
2013-04-23 15:07:00,40.6,30.6,18.79,North,6,5.4,5.4,67,0.00,,OVC,0.00,VWS V13.01,2013-04-23 20:07:00,
2013-04-23 15:12:00,41.0,30.4,18.79,NNW,343,7.6,8.3,66,0.00,,OVC,0.00,VWS V13.01,2013-04-23 20:12:00,
2013-04-23 15:17:00,41.0,30.4,18.79,WNW,285,3.6,3.6,66,0.00,,OVC,0.00,VWS V13.01,2013-04-23 20:17:00,
2013-04-23 15:22:00,41.5,31.0,18.79,North,2,8.3,8.3,66,0.00,,OVC,0.00,VWS V13.01,2013-04-23 20:22:00,
2013-04-23 15:27:00,41.7,31.1,18.79,NNW,331,5.8,5.8,66,0.00,,OVC,0.00,VWS V13.01,2013-04-23 20:27:00,
2013-04-23 15:32:00,41.9,31.3,18.79,NNW,338,4.0,9.6,66,0.00,,OVC,0.00,VWS V13.01,2013-04-23 20:32:00,
2013-04-23 15:37:00,41.9,31.3,18.79,NNE,12,3.1,6.3,66,0.00,,OVC,0.00,VWS V13.01,2013-04-23 20:37:00,
2013-04-23 15:42:00,42.1,31.5,18.79,NW,322,4.0,8.3,66,0.00,,OVC,0.00,VWS V13.01,2013-04-23 20:42:00,
2013-04-23 15:47:00,42.1,31.5,18.79,North,8,8.3,8.3,66,0.00,,OVC,0.00,VWS V13.01,2013-04-23 20:47:00,
2013-04-23 15:52:00,41.7,31.1,18.79,WNW,298,4.0,5.8,66,0.00,,OVC,0.00,VWS V13.01,2013-04-23 20:52:00,
2013-04-23 15:57:00,41.7,31.1,18.79,NW,319,5.4,5.8,66,0.00,,OVC,0.00,VWS V13.01,2013-04-23 20:57:00,
2013-04-23 16:02:00,41.7,31.1,18.79,NNW,348,6.3,7.6,66,0.00,,OVC,0.00,VWS V13.01,2013-04-23 21:02:00,
2013-04-23 16:07:00,41.7,31.1,18.79,NNW,336,6.7,6.7,66,0.00,,OVC,0.00,VWS V13.01,2013-04-23 21:07:00,
2013-04-23 16:12:00,41.7,31.1,18.79,WSW,258,3.6,8.3,66,0.00,,OVC,0.00,VWS V13.01,2013-04-23 21:12:00,
2013-04-23 16:17:00,41.7,31.1,18.79,WNW,303,3.1,8.3,66,0.00,,OVC,0.00,VWS V13.01,2013-04-23 21:17:00,
2013-04-23 16:22:00,41.7,31.1,18.79,North,353,5.4,8.3,66,0.00,,OVC,0.00,VWS V13.01,2013-04-23 21:22:00,
2013-04-23 16:27:00,41.9,31.3,18.79,NNE,15,7.6,7.6,66,0.00,,OVC,0.00,VWS V13.01,2013-04-23 21:27:00,
2013-04-23 16:32:00,41.9,31.3,18.79,West,279,3.6,6.3,66,0.00,,OVC,0.00,VWS V13.01,2013-04-23 21:32:00,
2013-04-23 16:37:00,41.9,31.3,18.79,North,353,7.6,7.6,66,0.00,,OVC,0.00,VWS V13.01,2013-04-23 21:37:00,
2013-04-23 16:42:00,42.1,31.5,18.79,WSW,252,5.8,5.8,66,0.00,,OVC,0.00,VWS V13.01,2013-04-23 21:42:00,
2013-04-23 16:47:00,42.1,31.5,18.79,NNE,31,6.3,8.3,66,0.00,,OVC,0.00,VWS V13.01,2013-04-23 21:47:00,
2013-04-23 16:52:00,41.7,31.1,18.79,North,10,5.4,8.7,66,0.00,,OVC,0.00,VWS V13.01,2013-04-23 21:52:00,
2013-04-23 16:57:00,41.5,31.0,18.79,North,0,3.6,5.4,66,0.00,,OVC,0.00,VWS V13.01,2013-04-23 21:57:00,
2013-04-23 17:02:00,41.7,31.1,18.79,WNW,297,5.8,6.3,66,0.00,,OVC,0.00,VWS V13.01,2013-04-23 22:02:00,
2013-04-23 17:07:00,41.7,31.1,18.79,NNW,333,4.0,5.4,66,0.00,,OVC,0.00,VWS V13.01,2013-04-23 22:07:00,
2013-04-23 17:12:00,42.1,31.5,18.79,North,11,2.7,2.7,66,0.00,,OVC,0.00,VWS V13.01,2013-04-23 22:12:00,
2013-04-23 17:17:00,42.3,31.6,18.79,NNW,344,2.7,3.1,66,0.00,,OVC,0.00,VWS V13.01,2013-04-23 22:17:00,
2013-04-23 17:22:00,42.3,31.6,18.79,NNW,337,5.8,8.3,66,0.00,,OVC,0.00,VWS V13.01,2013-04-23 22:22:00,
2013-04-23 17:27:00,42.1,31.5,18.79,NNE,16,6.3,8.3,66,0.00,,OVC,0.00,VWS V13.01,2013-04-23 22:27:00,
2013-04-23 17:31:00,41.7,31.1,18.79,WNW,293,5.8,8.3,66,0.00,,OVC,0.00,VWS V13.01,2013-04-23 22:31:00,
2013-04-23 17:36:00,41.5,31.0,18.79,NNE,27,6.3,8.7,66,0.00,,OVC,0.00,VWS V13.01,2013-04-23 22:36:00,
2013-04-23 17:41:00,41.5,31.0,18.79,NE,39,6.7,7.6,66,0.00,,OVC,0.00,VWS V13.01,2013-04-23 22:41:00,
2013-04-23 17:46:00,41.2,30.6,18.79,NNE,28,2.7,4.0,66,0.00,,OVC,0.00,VWS V13.01,2013-04-23 22:46:00,
2013-04-23 17:51:00,41.2,30.6,18.79,NNE,30,5.4,8.7,66,0.00,,OVC,0.00,VWS V13.01,2013-04-23 22:51:00,
2013-04-23 17:56:00,41.2,30.6,18.79,North,0,8.7,8.7,66,0.00,,OVC,0.00,VWS V13.01,2013-04-23 22:56:00,
2013-04-23 18:01:00,41.0,30.4,18.79,North,5,5.8,8.1,66,0.00,,OVC,0.00,VWS V13.01,2013-04-23 23:01:00,
2013-04-23 18:06:00,40.8,30.3,18.79,NE,39,5.4,6.3,66,0.00,,OVC,0.00,VWS V13.01,2013-04-23 23:06:00,
2013-04-23 18:11:00,40.8,30.3,18.79,North,353,9.6,9.6,66,0.00,,OVC,0.00,VWS V13.01,2013-04-23 23:11:00,
2013-04-23 18:16:00,40.8,30.3,18.79,North,353,3.1,4.0,66,0.00,,OVC,0.00,VWS V13.01,2013-04-23 23:16:00,
2013-04-23 18:21:00,40.8,30.3,18.79,NNW,348,3.6,8.7,66,0.00,,OVC,0.00,VWS V13.01,2013-04-23 23:21:00,
2013-04-23 18:26:00,40.6,30.1,18.79,North,353,4.0,4.0,66,0.00,,OVC,0.00,VWS V13.01,2013-04-23 23:26:00,
2013-04-23 18:31:00,40.6,30.1,18.79,NNE,18,4.9,5.4,66,0.00,,OVC,0.00,VWS V13.01,2013-04-23 23:31:00,
2013-04-23 18:36:00,40.8,30.3,18.79,NNW,345,2.7,3.1,66,0.00,,OVC,0.00,VWS V13.01,2013-04-23 23:36:00,
2013-04-23 18:41:00,40.8,30.3,18.79,North,357,2.7,5.8,66,0.00,,OVC,0.00,VWS V13.01,2013-04-23 23:41:00,
2013-04-23 18:46:00,40.8,30.3,18.79,North,0,6.3,6.3,66,0.00,,OVC,0.00,VWS V13.01,2013-04-23 23:46:00,
2013-04-23 18:51:00,40.6,30.1,18.79,NW,315,4.0,4.5,66,0.00,,OVC,0.00,VWS V13.01,2013-04-23 23:51:00,
2013-04-23 18:56:00,40.6,30.1,18.79,NW,320,3.6,6.3,66,0.00,,OVC,0.00,VWS V13.01,2013-04-23 23:56:00,
2013-04-23 19:01:00,40.6,30.1,18.79,North,353,4.5,4.5,66,0.00,,OVC,0.00,VWS V13.01,2013-04-24 00:01:00,
2013-04-23 19:06:00,40.6,30.1,18.79,North,353,2.2,2.7,66,0.00,,OVC,0.00,VWS V13.01,2013-04-24 00:06:00,
2013-04-23 19:11:00,40.6,30.1,18.79,NW,323,4.9,4.9,66,0.00,,OVC,0.00,VWS V13.01,2013-04-24 00:11:00,
2013-04-23 19:16:00,40.6,30.1,18.79,North,350,3.6,3.6,66,0.00,,OVC,0.00,VWS V13.01,2013-04-24 00:16:00,
2013-04-23 19:21:00,40.6,30.1,18.79,NNE,29,4.9,7.6,66,0.00,,OVC,0.00,VWS V13.01,2013-04-24 00:21:00,
2013-04-23 19:26:00,40.6,30.1,18.79,NNW,343,3.1,4.0,66,0.00,,OVC,0.00,VWS V13.01,2013-04-24 00:26:00,
2013-04-23 19:31:00,40.5,29.9,18.79,WNW,301,4.0,4.0,66,0.00,,OVC,0.00,VWS V13.01,2013-04-24 00:31:00,
2013-04-23 19:36:00,40.5,29.9,18.79,NNW,337,3.6,8.1,66,0.00,,OVC,0.00,VWS V13.01,2013-04-24 00:36:00,
2013-04-23 19:41:00,40.3,29.8,18.79,WNW,297,5.4,5.4,66,0.00,,OVC,0.00,VWS V13.01,2013-04-24 00:41:00,
2013-04-23 19:46:00,40.3,29.8,18.79,North,0,4.0,8.1,66,0.00,,OVC,0.00,VWS V13.01,2013-04-24 00:46:00,
2013-04-23 19:51:00,40.3,29.8,18.79,NNW,332,5.4,5.4,66,0.00,,OVC,0.00,VWS V13.01,2013-04-24 00:51:00,
2013-04-23 19:56:00,40.1,29.6,18.79,NNW,346,6.3,6.3,66,0.00,,OVC,0.00,VWS V13.01,2013-04-24 00:56:00,
2013-04-23 20:01:00,39.9,29.4,18.79,NNW,327,5.8,6.3,66,0.00,,OVC,0.00,VWS V13.01,2013-04-24 01:01:00,
2013-04-23 20:06:00,39.9,29.4,18.79,North,6,5.4,5.4,66,0.00,,OVC,0.00,VWS V13.01,2013-04-24 01:06:00,
2013-04-23 20:11:00,39.9,29.4,18.79,North,2,4.0,5.8,66,0.00,,OVC,0.00,VWS V13.01,2013-04-24 01:11:00,
2013-04-23 20:16:00,39.7,29.2,18.79,NNW,346,6.3,6.3,66,0.00,,OVC,0.00,VWS V13.01,2013-04-24 01:16:00,
2013-04-23 20:21:00,39.7,29.2,18.79,North,6,3.6,5.8,66,0.00,,OVC,0.00,VWS V13.01,2013-04-24 01:21:00,
2013-04-23 20:26:00,39.7,29.2,18.79,NW,322,4.9,8.3,66,0.00,,OVC,0.00,VWS V13.01,2013-04-24 01:26:00,
2013-04-23 20:31:00,39.6,29.1,18.79,North,357,8.7,8.7,66,0.00,,OVC,0.00,VWS V13.01,2013-04-24 01:31:00,
2013-04-23 20:36:00,39.6,29.1,18.79,North,0,4.0,6.3,66,0.00,,OVC,0.00,VWS V13.01,2013-04-24 01:36:00,
2013-04-23 20:41:00,39.4,28.9,18.79,NW,323,4.9,5.8,66,0.00,,OVC,0.00,VWS V13.01,2013-04-24 01:41:00,
2013-04-23 20:46:00,39.4,28.9,18.79,North,357,3.6,5.8,66,0.00,,OVC,0.00,VWS V13.01,2013-04-24 01:46:00,
2013-04-23 20:51:00,39.2,28.7,18.79,NNW,328,2.7,4.0,66,0.00,,OVC,0.00,VWS V13.01,2013-04-24 01:51:00,
2013-04-23 20:56:00,39.2,28.7,18.79,North,353,2.7,6.3,66,0.00,,OVC,0.00,VWS V13.01,2013-04-24 01:56:00,
2013-04-23 21:01:00,39.0,29.1,18.79,North,357,3.6,4.0,67,0.00,,OVC,0.00,VWS V13.01,2013-04-24 02:01:00,
2013-04-23 21:06:00,38.8,28.9,18.79,North,11,2.2,3.6,67,0.00,,OVC,0.00,VWS V13.01,2013-04-24 02:06:00,
2013-04-23 21:11:00,38.8,28.9,18.79,NNW,329,5.8,5.8,67,0.00,,OVC,0.00,VWS V13.01,2013-04-24 02:11:00,
2013-04-23 21:17:00,38.8,28.9,18.79,NNW,331,2.7,3.1,67,0.00,,OVC,0.00,VWS V13.01,2013-04-24 02:17:00,
2013-04-23 21:22:00,38.8,28.9,18.79,North,353,3.6,4.0,67,0.00,,OVC,0.00,VWS V13.01,2013-04-24 02:22:00,
2013-04-23 21:27:00,38.8,28.9,18.79,NW,308,4.0,5.8,67,0.00,,OVC,0.00,VWS V13.01,2013-04-24 02:27:00,
2013-04-23 21:32:00,38.8,28.9,18.79,NNE,28,6.3,6.3,67,0.00,,OVC,0.00,VWS V13.01,2013-04-24 02:32:00,
2013-04-23 21:37:00,38.8,28.9,18.79,North,350,6.3,6.3,67,0.00,,OVC,0.00,VWS V13.01,2013-04-24 02:37:00,
2013-04-23 21:42:00,38.8,28.9,18.79,North,357,2.7,4.0,67,0.00,,OVC,0.00,VWS V13.01,2013-04-24 02:42:00,
2013-04-23 21:47:00,38.8,28.9,18.79,NNW,344,5.4,6.3,67,0.00,,OVC,0.00,VWS V13.01,2013-04-24 02:47:00,
2013-04-23 21:52:00,38.8,28.9,18.79,NNW,342,3.1,3.6,67,0.00,,OVC,0.00,VWS V13.01,2013-04-24 02:52:00,
2013-04-23 21:57:00,38.7,28.7,18.79,NNW,333,3.1,3.1,67,0.00,,OVC,0.00,VWS V13.01,2013-04-24 02:57:00,
2013-04-23 22:03:00,38.7,28.7,18.79,NNW,343,2.7,3.1,67,0.00,,OVC,0.00,VWS V13.01,2013-04-24 03:03:00,
2013-04-23 22:08:00,38.7,28.7,18.79,NW,318,3.6,3.6,67,0.00,,OVC,0.00,VWS V13.01,2013-04-24 03:08:00,
2013-04-23 22:13:00,38.7,28.7,18.79,NNW,338,5.8,5.8,67,0.00,,OVC,0.00,VWS V13.01,2013-04-24 03:13:00,
2013-04-23 22:18:00,38.7,28.7,18.79,North,353,2.7,3.6,67,0.00,,OVC,0.00,VWS V13.01,2013-04-24 03:18:00,
2013-04-23 22:23:00,38.7,28.7,18.79,North,0,3.6,8.1,67,0.00,,OVC,0.00,VWS V13.01,2013-04-24 03:23:00,
2013-04-23 22:28:00,38.7,28.7,18.79,WNW,299,0.0,5.4,67,0.00,,OVC,0.00,VWS V13.01,2013-04-24 03:28:00,
2013-04-23 22:33:00,38.5,28.6,18.79,NNW,345,4.0,4.0,67,0.00,,OVC,0.00,VWS V13.01,2013-04-24 03:33:00,
2013-04-23 22:38:00,38.5,28.6,18.79,NW,314,3.1,7.6,67,0.00,,OVC,0.00,VWS V13.01,2013-04-24 03:38:00,
2013-04-23 22:43:00,38.5,28.6,18.79,North,4,3.6,5.4,67,0.00,,OVC,0.00,VWS V13.01,2013-04-24 03:43:00,
2013-04-23 22:48:00,38.5,28.6,18.79,NNW,330,4.9,5.8,67,0.00,,OVC,0.00,VWS V13.01,2013-04-24 03:48:00,
2013-04-23 22:53:00,38.3,28.4,18.79,NNW,328,5.8,5.8,67,0.00,,OVC,0.00,VWS V13.01,2013-04-24 03:53:00,
2013-04-23 22:58:00,38.3,28.4,18.79,North,0,5.8,5.8,67,0.00,,OVC,0.00,VWS V13.01,2013-04-24 03:58:00,
2013-04-23 23:01:00,38.3,28.4,18.79,NNE,12,2.7,4.9,67,0.00,,OVC,0.00,VWS V13.01,2013-04-24 04:01:00,
2013-04-23 23:06:00,38.3,28.4,18.79,NW,320,4.0,4.0,67,0.00,,OVC,0.00,VWS V13.01,2013-04-24 04:06:00,
2013-04-23 23:11:00,38.3,28.4,18.79,NW,324,3.1,5.8,67,0.00,,OVC,0.00,VWS V13.01,2013-04-24 04:11:00,
2013-04-23 23:16:00,38.3,28.4,18.79,NNE,15,3.1,6.3,67,0.00,,OVC,0.00,VWS V13.01,2013-04-24 04:16:00,
2013-04-23 23:21:00,38.3,28.4,18.79,NNW,345,4.0,4.0,67,0.00,,OVC,0.00,VWS V13.01,2013-04-24 04:21:00,
2013-04-23 23:26:00,38.3,28.4,18.79,West,268,6.3,6.3,67,0.00,,OVC,0.00,VWS V13.01,2013-04-24 04:26:00,
2013-04-23 23:31:00,38.3,28.4,18.79,NNW,336,5.4,6.3,67,0.00,,OVC,0.00,VWS V13.01,2013-04-24 04:31:00,
2013-04-23 23:36:00,38.1,28.2,18.79,North,8,6.3,6.3,67,0.00,,OVC,0.00,VWS V13.01,2013-04-24 04:36:00,
2013-04-23 23:41:00,38.1,28.2,18.79,NNE,30,2.2,5.8,67,0.00,,OVC,0.00,VWS V13.01,2013-04-24 04:41:00,
2013-04-23 23:46:00,38.1,28.2,18.79,NNW,340,4.9,5.4,67,0.00,,OVC,0.00,VWS V13.01,2013-04-24 04:46:00,
2013-04-23 23:51:00,38.1,28.2,18.79,North,353,7.6,7.6,67,0.00,,OVC,0.00,VWS V13.01,2013-04-24 04:51:00,
2013-04-23 23:56:00,38.1,28.2,18.79,NNW,340,4.0,4.0,67,0.00,,OVC,0.00,VWS V13.01,2013-04-24 04:56:00,